Content
SEND FEEDBACK

Daily
Averages
Monthly
Summary
United States of America

NOBLESVILLE, INDIANA


Home > North America > United States > Indiana
Elevation: 778 feet     Latitude: 40 03N     Longitude: 086 01W

WEATHER
 
SELECT A DAY
Number of Records: 152,785;   Date Range: 4/11/08 - 9/1/14
 
SHARE

PRINT THIS DATA

[ ← Previous Day ]
WEATHER ALMANAC - JANUARY 31, 2013
[ Next Day → ]
[ °C ]   °F
Weather ElementAverageHighLow
Temperature21.5 °F26.2 °F (1:55 pm)9 °F (11:55 pm)
Dewpoint13.3 °F19.9 °F (12:35 am)-0.6 °F (11:55 pm)
Humidity70.9 %82 % (9:35 am)63 % (10:15 pm)
Barometer29.87 in30.11 in (11:55 pm)29.64 in (12:35 am)
Wind Speed18.8 mph32.2 mph (3:35 am)
Wind Gust43.7 mph (6:15 am)
Weather ElementAverage
Visibility7.6 mi
Wind DirectionWNW (276.6 °)

Weather ElementTotal
Precipitation---
Heating Degree Days47.4 (Base 65)
Averaged from 70 records on January 31, 2013
WEATHER CONDITIONS BREAKOUT
WIND DIRECTION BREAKOUT
WEATHER BY HOUR - JANUARY 31, 2013
[ °C ]   °F
Local TimeTemperatureDewpointHumidityBarometerVisibilityWind DirectionWind SpeedGust SpeedPrecipitationEventsConditions
12:35 AM26.1 °F19.9 °F78 %29.64 in10.0 miWest (270°)25.3 mph39.1 mphOvercast
12:55 AM25.7 °F18.7 °F75 %29.66 in10.0 miWest (280°)19.6 mph41.4 mphSnowLight Snow
1:15 AM25.2 °F18.3 °F75 %29.67 in5.0 miWest (270°)28.8 mph38.0 mphSnowLight Snow
1:35 AM24.8 °F18.0 °F75 %29.68 in5.0 miWest (280°)19.6 mph32.2 mphSnowLight Snow
1:55 AM24.8 °F17.8 °F75 %29.69 in5.0 miWest (270°)19.6 mph38.0 mphSnowLight Snow
2:15 AM23.9 °F17.1 °F75 %29.70 in7.0 miWest (270°)28.8 mph33.4 mphSnowLight Snow
2:35 AM23.9 °F16.2 °F72 %29.71 in10.0 miWest (270°)20.7 mph28.8 mphSnowLight Snow
2:55 AM24.3 °F17.4 °F75 %29.72 in4.0 miWest (270°)20.7 mph27.6 mphSnowLight Snow
3:15 AM24.3 °F15.8 °F70 %29.72 in10.0 miWest (270°)20.7 mph34.5 mphSnowLight Snow
3:35 AM23.7 °F14.2 °F67 %29.73 in10.0 miWest (270°)32.2 mph38.0 mphOvercast
3:55 AM23.9 °F14.7 °F68 %29.73 in10.0 miWest (270°)19.6 mph29.9 mphSnowLight Snow
4:15 AM23.5 °F14.2 °F67 %29.74 in10.0 miWest (260°)25.3 mph38.0 mphOvercast
4:35 AM21.9 °F12.0 °F66 %29.75 in10.0 miWest (260°)28.8 mph41.4 mphSnowLight Snow
4:55 AM21.9 °F13.1 °F69 %29.76 in10.0 miWest (270°)24.2 mph34.5 mphSnowLight Snow
5:15 AM22.1 °F12.6 °F67 %29.77 in10.0 miWest (270°)24.2 mph33.4 mphSnowLight Snow
5:35 AM21.0 °F11.3 °F66 %29.77 in10.0 miWest (280°)18.4 mph31.1 mphMostly Cloudy
5:55 AM21.2 °F12.2 °F68 %29.78 in10.0 miWest (270°)18.4 mph28.8 mphOvercast
6:15 AM21.2 °F13.6 °F73 %29.79 in7.0 miWest (270°)32.2 mph43.7 mphSnowLight Snow
6:35 AM20.7 °F11.5 °F68 %29.80 in10.0 miWest (280°)24.2 mph34.5 mphOvercast
6:55 AM20.7 °F12.4 °F70 %29.81 in10.0 miWest (280°)18.4 mph27.6 mphSnowLight Snow
7:15 AM20.7 °F12.0 °F69 %29.81 in10.0 miWest (270°)19.6 mph27.6 mphOvercast
7:35 AM20.8 °F12.9 °F71 %29.82 in10.0 miWest (260°)16.1 mph24.2 mphOvercast
7:55 AM21.2 °F14.0 °F74 %29.82 in7.0 miWest (260°)13.8 mph19.6 mphSnowLight Snow
8:15 AM21.9 °F14.2 °F72 %29.82 in7.0 miWest (270°)16.1 mph24.2 mphSnowLight Snow
8:35 AM22.1 °F15.3 °F75 %29.83 in7.0 miWSW (250°)13.8 mphSnowLight Snow
8:55 AM21.9 °F16.5 °F80 %29.84 in1.2 miWSW (250°)17.3 mph24.2 mphSnowLight Snow
9:15 AM22.5 °F16.7 °F79 %29.84 in2.5 miWSW (250°)11.5 mphSnowLight Snow
9:35 AM22.5 °F17.6 °F82 %29.85 in1.2 miWSW (250°)12.7 mphSnowLight Snow
9:55 AM23.0 °F18.0 °F81 %29.86 in3.0 miWSW (250°)11.5 mph17.3 mphSnowLight Snow
10:15 AM23.9 °F18.3 °F79 %29.86 in5.0 miWSW (240°)15.0 mph20.7 mphSnowLight Snow
10:35 AM25.0 °F18.1 °F75 %29.86 in10.0 miWSW (250°)13.8 mph27.6 mphOvercast
10:55 AM24.8 °F17.2 °F73 %29.87 in0.5 miWest (280°)20.7 mph36.8 mphSnowLight Snow
11:15 AM24.4 °F19.8 °F82 %29.88 in0.8 miWNW (290°)11.5 mph24.2 mphSnowLight Snow
11:35 AM24.1 °F18.1 °F78 %29.88 in0.5 miWest (270°)16.1 mph24.2 mphSnowLight Snow
11:55 AM24.4 °F18.5 °F78 %29.88 in1.0 miWest (270°)13.8 mph24.2 mphSnowLight Snow
12:15 PM25.2 °F18.3 °F75 %29.88 in7.0 miWest (280°)17.3 mph24.2 mphSnowLight Snow
12:35 PM24.4 °F18.1 °F77 %29.89 in0.8 miWest (270°)16.1 mph23.0 mphSnowLight Snow
12:55 PM24.4 °F17.8 °F76 %29.89 in1.5 miWest (260°)15.0 mph23.0 mphSnowLight Snow
1:15 PM25.7 °F16.7 °F69 %29.89 in10.0 miWest (280°)11.5 mph26.5 mphSnowLight Snow
1:35 PM25.5 °F16.5 °F69 %29.89 in5.0 miWest (280°)15.0 mph28.8 mphSnowLight Snow
1:55 PM26.2 °F15.4 °F64 %29.89 in10.0 miWest (260°)23.0 mph32.2 mphMostly Cloudy
2:15 PM25.9 °F16.3 °F67 %29.88 in7.0 miWest (270°)20.7 mph28.8 mphSnowLight Snow
2:35 PM25.7 °F15.6 °F66 %29.88 in10.0 miWest (270°)21.9 mph27.6 mphSnowLight Snow
2:55 PM25.7 °F15.8 °F66 %29.88 in10.0 miWest (270°)12.7 mph27.6 mphMostly Cloudy
3:15 PM26.2 °F15.6 °F64 %29.88 in10.0 miWest (270°)19.6 mph28.8 mphSnowLight Snow
3:35 PM26.2 °F15.6 °F64 %29.88 in10.0 miWest (270°)23.0 mph31.1 mphOvercast
3:55 PM25.3 °F15.6 °F67 %29.88 in10.0 miWest (270°)19.6 mph25.3 mphSnowLight Snow
4:15 PM25.0 °F15.3 °F67 %29.88 in10.0 miWNW (290°)9.2 mph21.9 mphSnowLight Snow
4:35 PM24.3 °F15.6 °F70 %29.89 in10.0 miWest (270°)13.8 mph18.4 mphSnowLight Snow
4:55 PM23.9 °F16.3 °F73 %29.89 in7.0 miWNW (290°)10.4 mph16.1 mphSnowLight Snow
5:15 PM23.4 °F15.8 °F73 %29.90 in5.0 miWNW (300°)12.7 mphSnowLight Snow
5:35 PM22.6 °F15.1 °F73 %29.91 in5.0 miWNW (290°)16.1 mph24.2 mphSnowLight Snow
5:55 PM22.1 °F14.4 °F72 %29.91 in10.0 miWNW (290°)11.5 mphSnowLight Snow
6:15 PM21.7 °F13.5 °F70 %29.93 in10.0 miWNW (290°)13.8 mph26.5 mphSnowLight Snow
6:35 PM20.7 °F10.4 °F65 %29.94 in10.0 miWNW (290°)18.4 mph27.6 mphOvercast
6:55 PM19.6 °F10.8 °F69 %29.95 in10.0 miWNW (300°)20.7 mph27.6 mphSnowLight Snow
7:15 PM18.9 °F10.9 °F71 %29.96 in10.0 miNW (310°)18.4 mph23.0 mphOvercast
7:35 PM17.6 °F9.9 °F72 %29.97 in7.0 miWNW (300°)15.0 mph24.2 mphSnowLight Snow
8:15 PM15.8 °F7.5 °F70 %29.98 in10.0 miNW (310°)21.9 mph28.8 mphOvercast
8:35 PM14.7 °F5.5 °F67 %30.00 in10.0 miWNW (290°)19.6 mph27.6 mphOvercast
8:55 PM14.0 °F4.5 °F66 %30.00 in10.0 miWNW (290°)18.4 mph25.3 mphOvercast
9:15 PM14.5 °F5.4 °F67 %30.01 in10.0 miWNW (290°)17.3 mph31.1 mphOvercast
9:35 PM13.6 °F3.9 °F65 %30.02 in7.0 miWNW (300°)17.3 mph27.6 mphOvercast
9:55 PM13.1 °F4.8 °F70 %30.03 in7.0 miWNW (290°)21.9 mph28.8 mphOvercast
10:15 PM12.7 °F2.3 °F63 %30.04 in10.0 miWNW (290°)19.6 mph31.1 mphOvercast
10:35 PM11.1 °F0.9 °F63 %30.06 in10.0 miWNW (300°)26.5 mph32.2 mphMostly Cloudy
10:55 PM11.1 °F2.1 °F67 %30.07 in7.0 miWNW (290°)19.6 mph28.8 mphSnowLight Snow
11:15 PM10.0 °F0.3 °F65 %30.08 in10.0 miNW (310°)20.7 mph31.1 mphMostly Cloudy
11:35 PM9.5 °F1.9 °F71 %30.09 in2.5 miWNW (300°)24.2 mph32.2 mphSnowLight Snow
11:55 PM9.0 °F-0.6 °F65 %30.11 in10.0 miWNW (290°)17.3 mph26.5 mphScattered Clouds
Hourly data recorded from KTYQ, located miles away from Noblesville, Indiana







STORIES FROM OUR PARTNERS